Starlink 31014

operational
NORAD ID: 58538 Int'l Des: 2023-192 Owner: SPXS Country: US Constellation: starlink
LEOCIRCULAR

Starlink 31014について

説明を読み込み中...

リアルタイム位置

3D地球を読み込み中...

次回通過

高度履歴

Altitude vs Time

uPlot chart will show altitude changes over time

軌道要素

1 58538U 23192H 25350.99639016 .00000331 00000-0 23324-4 0 9999
2 58538 53.1616 86.9168 0001588 63.7331 296.3833 15.30190970113325
Epoch: Dec 16, 2025 • Age: 18 hours

現在のステータス

高度 475.7 km
速度 7.63 km/s
衛星直下点 8.12°N, 97.7°W
打ち上げ日 Dec 8, 2023
運用期間 2 years
タイプ internet

技術仕様

分類 Payload
質量 730.00 kg
乾燥質量 700.00 kg
総質量 730.00 kg
長さ 0.30 m
直径 4.10 m
スパン 29.00 m
形状 Box + pan
製造者 SPXS
バスタイプ Starlink V2M
フェーズステータス In Orbit
所有者/国 SPXS/US

大規模コンステレーション

Loading constellations...